Etusivu
METAR-TAF:

METAR-TAF

Lentoasemat :

Glencoe Municipal Airport (Vernon Perschau Field)

Glencoe, Minnesota, Yhdysvallat

Leveyspiiri: 44-45-22N, Pituuspiiri: 094-04-52W, korkeus merenpinnasta: 302 m

Tämänhetkinen sää

Tämä raportti tehtiin 5 minuuttia sitten, kello 10.15 UTC
tyyntä
Lämpötila 19°C
Kosteus 94%
Ilmanpaine 1019 hPa
Näkyvyys: 11.3 km
selkeää

METAR: KGYL 031015Z AUTO 00000KT 7SM CLR 19/18 A3008 RMK AO2 T01870181

Aika: 05:20 (10:20 UTC)


TAF: puuttuu

Säähavainnot ja -ennusteet yli 4000 lentoasemalta (METAR- ja TAF-raportit).

Käytössä olevat sääasemat on merkitty karttaan keltaisilla ja punaisilla pisteillä.

Aseta hiiri pisteen päälle nähdäksesi sääaseman nimen.

Klikkaa sitten nähdäksesi säähavainnot ja -ennusteet.

Kartan vaihtaminen: klikkaa mustalla rastilla varustettuja vihreitä pisteitä, niin voit zoomata sisään; viivalla varustettua vihreää pistettä, niin voit zoomata ulos tai vihreitä nuolia, niin pääset viereisille kartoille.


METAR-TAF: